South Bend, IN

8:12 PM EDT on April 27, 2017 (GMT -0400)
South Bend Regional

Weather History for KSBN - April, 2013

Change the Weather History Date:

Monday, April 8, 2013

  Actual Average Record
Temperature  
Mean Temperature 55 °F 46 °F  
Max Temperature 68 °F 57 °F 79 °F (1931)
Min Temperature 42 °F 36 °F 11 °F (1972)
Degree Days  
Heating Degree Days 10 19  
Month to date heating degree days 188 162  
Since 1 July heating degree days 5599 5706  
Cooling Degree Days 0 0  
Month to date cooling degree days 0 0  
Year to date cooling degree days 0 1  
Growing Degree Days 5 (Base 50)    
Moisture  
Dew Point 42 °F    
Average Humidity 71    
Maximum Humidity 89    
Minimum Humidity 52    
Precipitation  
Precipitation 0.13 in 0.11 in 1.30 in (1929)
Month to date precipitation 0.15 0.80  
Year to date precipitation 8.90 7.46  
Snow  
Snow 0.00 in 0.10 in 0.80 in (1957)
Month to date snowfall T 0.7  
Since 1 July snowfall 59.9 65.9  
Snow Depth 0.00 in    
Sea Level Pressure  
Sea Level Pressure 29.85 in    
Wind  
Wind Speed 14 mph (SE)    
Max Wind Speed 35 mph    
Max Gust Speed 46 mph    
Visibility 9 miles    
Events Rain    
T = Trace of Precipitation, MM = Missing Value Source: NWS Daily Summary

Daily Weather History Graph

Daily Weather History Graph

Search for Another Location

Airport or City:

Trip Planner

Search our weather history database for the weather conditions in past years. The results will help you decide how hot, cold, wet, or windy it might be!

Date:

Astronomy

Apr. 08, 2013 Rise Set
Actual Time 7:16 AM EDT 8:18 PM EDT
Civil Twilight 6:47 AM EDT 8:47 PM EDT
Nautical Twilight 6:13 AM EDT 9:21 PM EDT
Astronomical Twilight 5:38 AM EDT 9:56 PM EDT
Moon 6:07 AM EDT (4/8) 6:51 PM EDT (4/8)
Length of Visible Light 13h 59m
Length of Day
13h 02m
Waning Crescent, 3% of the Moon is Illuminated
Apr 8
Waning Crescent
Apr 10
New
Apr 18
First Quarter
Apr 25
Full
May 2
Last Quarter

Hourly Weather History & Observations

Time (EDT) Temp. Windchill Dew Point Humidity Pressure Visibility Wind Dir Wind Speed Gust Speed Precip Events Conditions
12:54 AM 44.1 °F 40.1 °F 34.0 °F 68% 29.98 in 10.0 mi East 6.9 mph - N/A   Clear
1:54 AM 44.1 °F 39.5 °F 33.1 °F 65% 29.97 in 10.0 mi East 8.1 mph - N/A   Clear
2:54 AM 44.1 °F 38.6 °F 33.1 °F 65% 29.96 in 10.0 mi ESE 10.4 mph - N/A   Clear
3:54 AM 44.1 °F 37.4 °F 33.1 °F 65% 29.93 in 10.0 mi ESE 13.8 mph - N/A   Clear
4:54 AM 44.1 °F 37.4 °F 33.1 °F 65% 29.90 in 10.0 mi ESE 13.8 mph - N/A   Clear
5:54 AM 45.0 °F 39.7 °F 33.1 °F 63% 29.88 in 10.0 mi ESE 10.4 mph 20.7 mph N/A   Clear
6:54 AM 46.0 °F 40.2 °F 34.0 °F 63% 29.87 in 10.0 mi ESE 12.7 mph - N/A   Mostly Cloudy
7:54 AM 45.0 °F 38.2 °F 37.9 °F 76% 29.86 in 7.0 mi ESE 15.0 mph - 0.01 in Rain Light Rain
8:13 AM 44.6 °F 38.1 °F 39.2 °F 81% 29.84 in 2.5 mi ESE 13.8 mph - 0.05 in Rain Light Rain
8:21 AM 44.6 °F 37.4 °F 39.2 °F 81% 29.83 in 7.0 mi ESE 16.1 mph - 0.05 in Rain Light Rain
8:54 AM 45.0 °F 37.9 °F 41.0 °F 86% 29.82 in 5.0 mi ESE 16.1 mph - 0.08 in Rain Light Rain
9:54 AM 46.9 °F - 43.0 °F 86% 29.78 in 3.0 mi SE 9.2 mph - 0.02 in Rain Heavy Rain
10:54 AM 52.0 °F - 48.0 °F 86% 29.76 in 6.0 mi SSE 12.7 mph - 0.02 in   Overcast
11:33 AM 57.2 °F - 51.8 °F 82% 29.73 in 10.0 mi South 18.4 mph 29.9 mph N/A   Overcast
11:54 AM 59.0 °F - 53.1 °F 81% 29.73 in 10.0 mi South 15.0 mph - N/A   Overcast
12:32 PM 60.8 °F - 53.6 °F 77% 29.71 in 10.0 mi SSW 17.3 mph 25.3 mph 0.00 in   Overcast
12:54 PM 64.9 °F - 54.0 °F 68% 29.70 in 10.0 mi WSW 24.2 mph 29.9 mph 0.00 in   Mostly Cloudy
1:05 PM 64.4 °F - 51.8 °F 64% 29.69 in 10.0 mi SW 29.9 mph 46.0 mph N/A   Mostly Cloudy
1:54 PM 66.0 °F - 50.0 °F 56% 29.70 in 10.0 mi WSW 32.2 mph 40.3 mph N/A   Overcast
2:54 PM 68.0 °F - 50.0 °F 52% 29.73 in 10.0 mi West 32.2 mph 39.1 mph N/A   Overcast
3:54 PM 66.9 °F - 48.9 °F 52% 29.76 in 10.0 mi West 19.6 mph 27.6 mph N/A   Mostly Cloudy
4:54 PM 66.0 °F - 48.9 °F 54% 29.79 in 10.0 mi WNW 21.9 mph 33.4 mph N/A   Clear
5:54 PM 57.9 °F - 46.0 °F 65% 29.85 in 10.0 mi NW 20.7 mph 27.6 mph N/A   Clear
6:54 PM 54.0 °F - 44.1 °F 69% 29.88 in 10.0 mi NNW 15.0 mph - N/A   Clear
7:54 PM 51.1 °F - 43.0 °F 74% 29.91 in 10.0 mi North 10.4 mph - N/A   Clear
8:54 PM 46.0 °F 41.0 °F 39.9 °F 79% 29.93 in 10.0 mi North 10.4 mph - N/A   Clear
9:54 PM 43.0 °F 39.5 °F 39.0 °F 86% 29.96 in 10.0 mi NNE 5.8 mph - N/A   Clear
10:54 PM 42.1 °F 40.2 °F 39.0 °F 89% 29.99 in 10.0 mi NE 3.5 mph - N/A   Clear
11:54 PM 42.1 °F 40.2 °F 39.0 °F 89% 30.01 in 10.0 mi SE 3.5 mph - N/A   Clear